SQ7WT-13 Weather Reports


time (UTC)temp
F
wind
direction
speed
knots
gust
knots
rain 1hr
in
rain 24hr
in
rain mn
in
humidity
%
barometer
mb
20260905210845 54 116 0.0 4.3 0.00 0.00 0.00 98 989.0
20260905205844 53 336 0.0 2.6 0.00 0.03 0.00 98 989.0
20260905204843 54 42 0.9 2.6 0.00 0.06 0.00 98 988.9
20260905203842 54 324 0.9 3.5 0.00 0.04 0.00 97 989.5
20260905202841 54 176 1.7 4.3 0.00 0.02 0.00 94 989.5
20260905201840 56 78 2.6 7.0 0.00 0.00 0.00 88 989.4
20260905200839 58 46 0.9 5.2 0.00 0.00 0.00 75 988.9
20260905195838 58 270 0.0 0.0 0.00 0.00 0.00 75 988.2
20260905194836 58 252 0.0 0.0 0.00 0.00 0.00 74 988.2
20260905193835 59 227 0.0 2.6 0.00 0.00 0.00 75 988.2
20260905192834 58 150 0.0 3.5 0.00 0.00 0.00 74 988.2
20260905191833 58 282 0.0 0.0 0.00 0.00 0.00 76 988.3
20260905190831 58 275 0.0 0.0 0.00 0.00 0.00 76 988.4
20260905185831 59 270 0.0 1.7 0.00 0.00 0.00 75 988.4
20260905184830 59 294 0.0 0.0 0.00 0.00 0.00 74 988.3
20260905183828 59 96 0.0 0.9 0.00 0.00 0.00 72 988.2
20260905182827 59 187 0.0 0.0 0.00 0.00 0.00 72 988.1
20260905181826 59 270 0.0 0.0 0.00 0.00 0.00 71 988.1
20260905180825 59 258 0.0 0.0 0.00 0.00 0.00 71 988.1
20260905175824 59 276 0.0 0.0 0.00 0.00 0.00 69 987.9
20260905174823 60 270 0.0 1.7 0.00 0.00 0.00 69 987.9
20260905173822 61 115 0.0 2.6 0.00 0.00 0.00 67 987.8
20260905172821 62 343 0.9 4.3 0.00 0.00 0.00 66 987.7
20260905171820 62 120 0.0 1.7 0.00 0.00 0.00 65 987.7
20260905170819 62 97 0.0 1.7 0.00 0.00 0.00 64 987.6
20260905165817 64 95 0.9 3.5 0.00 0.00 0.00 60 987.6
20260905164817 64 57 0.0 3.5 0.00 0.00 0.00 62 987.7
20260905163815 64 287 0.0 2.6 0.00 0.00 0.00 63 987.5
20260905162814 65 258 0.0 3.5 0.00 0.00 0.00 64 987.4
20260905161813 65 264 0.0 0.9 0.00 0.00 0.00 64 987.3
20260905160812 65 52 0.0 1.7 0.00 0.00 0.00 59 987.3
20260905155811 65 108 0.9 3.5 0.00 0.00 0.00 61 987.2
20260905154810 66 318 0.9 4.3 0.00 0.00 0.00 58 987.1
20260905153809 66 252 0.9 5.2 0.00 0.00 0.00 57 987.2
20260905152808 66 226 0.9 6.1 0.00 0.00 0.00 58 987.0
20260905151807 66 181 0.9 5.2 0.00 0.00 0.00 57 987.0
20260905150805 67 19 0.9 4.3 0.00 0.00 0.00 58 986.9
20260905145804 67 204 0.9 5.2 0.00 0.00 0.00 60 987.0
20260905144803 68 221 0.9 5.2 0.00 0.00 0.00 55 987.0
20260905143802 67 180 1.7 8.7 0.00 0.00 0.00 57 987.0
20260905142802 67 96 1.7 5.2 0.00 0.00 0.00 57 987.0
20260905141800 67 300 1.7 6.1 0.00 0.00 0.00 58 987.1
20260905140759 69 174 0.9 4.3 0.00 0.00 0.00 57 986.9
20260905135758 67 232 0.9 4.3 0.00 0.00 0.00 58 987.0
20260905134757 67 175 1.7 6.1 0.00 0.00 0.00 58 986.9
20260905133756 67 82 2.6 8.7 0.00 0.00 0.00 58 986.9
20260905132755 68 162 1.7 9.6 0.00 0.00 0.00 56 986.8
20260905131753 66 28 1.7 5.2 0.00 0.00 0.00 59 986.9
20260905130752 67 126 1.7 8.7 0.00 0.00 0.00 58 986.6
20260905125751 69 78 1.7 7.8 0.00 0.00 0.00 56 986.6
20260905124750 67 208 1.7 6.1 0.00 0.00 0.00 56 986.8
20260905123749 67 220 1.7 5.2 0.00 0.00 0.00 56 986.8
20260905122749 70 174 1.7 7.8 0.00 0.00 0.00 53 986.5
20260905121747 70 299 3.5 7.8 0.00 0.00 0.00 53 986.5
20260905120746 70 269 2.6 6.1 0.00 0.00 0.00 53 986.6
20260905115745 70 48 1.7 8.7 0.00 0.00 0.00 54 986.5
20260905114743 70 332 1.7 6.1 0.00 0.00 0.00 53 986.5
20260905113742 71 294 2.6 5.2 0.00 0.00 0.00 53 986.3
20260905112741 70 186 2.6 6.1 0.00 0.00 0.00 55 986.4
20260905111740 68 298 2.6 7.8 0.00 0.00 0.00 61 986.5
20260905110740 67 240 1.7 4.3 0.00 0.00 0.00 62 986.5
20260905105738 66 52 2.6 6.1 0.00 0.00 0.00 65 986.6
20260905104737 69 134 2.6 5.2 0.00 0.00 0.00 59 986.4
20260905103736 69 164 1.7 5.2 0.00 0.00 0.00 58 986.4
20260905102735 66 353 1.7 6.1 0.00 0.00 0.00 65 986.4
20260905101734 66 5 2.6 9.6 0.00 0.00 0.00 65 986.4
20260905100733 66 101 1.7 5.2 0.00 0.00 0.00 65 986.4
20260905095732 67 348 1.7 5.2 0.00 0.00 0.00 65 986.3
20260905094731 67 263 2.6 7.0 0.00 0.00 0.00 65 986.2
20260905093730 64 72 1.7 5.2 0.00 0.00 0.00 70 986.3
20260905092730 65 0 1.7 4.3 0.00 0.00 0.00 71 986.2
20260905091728 65 278 1.7 5.2 0.00 0.00 0.00 71 986.1
20260905090727 65 349 1.7 5.2 0.00 0.00 0.00 73 986.1
20260905085726 64 78 0.9 3.5 0.00 0.00 0.00 70 986.2
20260905084726 64 284 1.7 10.4 0.00 0.00 0.00 76 986.1
20260905083724 65 336 1.7 8.7 0.00 0.00 0.00 75 986.1
20260905082723 64 270 1.7 5.2 0.00 0.00 0.00 74 986.2
20260905081723 62 250 1.7 4.3 0.00 0.00 0.00 80 986.0
20260905080722 64 67 1.7 5.2 0.00 0.00 0.00 79 985.9
20260905075721 64 35 1.7 5.2 0.00 0.00 0.00 78 985.8
20260905074720 63 186 1.7 8.7 0.00 0.00 0.00 81 985.9
20260905073719 63 244 1.7 5.2 0.00 0.00 0.00 82 985.7
20260905072718 62 283 0.9 4.3 0.00 0.00 0.00 83 985.7
20260905071717 61 98 0.9 3.5 0.00 0.00 0.00 89 985.7
20260905070716 61 282 0.9 3.5 0.00 0.00 0.00 87 985.4
20260905065715 61 110 0.9 4.3 0.00 0.00 0.00 90 985.2
20260905064714 60 193 0.9 5.2 0.00 0.00 0.00 90 985.3
20260905063713 60 10 1.7 4.3 0.00 0.00 0.00 91 985.2
20260905062712 60 270 0.9 6.1 0.00 0.00 0.00 92 985.1
20260905061711 60 306 0.9 3.5 0.00 0.00 0.00 94 984.9
20260905060710 59 274 0.9 4.3 0.00 0.01 0.00 95 984.8
20260905055709 59 46 0.9 3.5 0.00 0.01 0.00 96 984.3
20260905054708 59 264 0.9 4.3 0.00 0.00 0.00 96 984.5
20260905053706 59 16 0.9 3.5 0.00 0.00 0.00 96 984.4
20260905052705 59 328 0.9 3.5 0.00 0.00 0.00 96 984.4
20260905051705 59 97 0.9 2.6 0.00 0.00 0.00 96 984.3
20260905050703 59 24 0.9 5.2 0.00 0.00 0.00 96 984.2
20260905045703 59 199 0.9 6.1 0.00 0.00 0.00 96 984.4
20260905044701 59 270 1.7 7.8 0.00 0.00 0.00 95 983.8
20260905043700 59 126 0.9 5.2 0.00 0.00 0.00 96 983.9
20260905042659 59 306 0.9 4.3 0.00 0.00 0.00 97 983.9
20260905041658 59 60 0.9 5.2 0.00 0.00 0.00 96 983.8
20260905040657 59 114 0.9 6.1 0.00 0.00 0.00 97 983.3
20260905035656 59 142 1.7 5.2 0.00 0.00 0.00 96 983.2
20260905034655 59 90 0.9 3.5 0.00 0.00 0.00 97 982.9
20260905033654 59 240 0.9 4.3 0.00 0.00 0.00 98 983.0
20260905032653 59 276 1.7 5.2 0.00 0.00 0.00 98 982.8
20260905031652 59 48 0.9 4.3 0.00 0.00 0.00 98 983.0
20260905030651 59 108 0.9 4.3 0.00 0.00 0.00 99 982.8
20260905025650 59 344 0.9 4.3 0.00 0.00 0.00 97 982.7
20260905024649 59 36 0.9 4.3 0.00 0.00 0.00 98 982.8
20260905023648 59 30 0.9 4.3 0.00 0.00 0.00 98 982.9
20260905022646 59 246 0.9 8.7 0.00 0.00 0.00 98 982.5
20260905021645 59 66 0.9 5.2 0.00 0.00 0.00 99 982.9
20260905020644 59 244 0.9 4.3 0.00 0.00 0.00 99 982.1
20260905015643 59 240 0.9 4.3 0.00 0.00 0.00 99 982.2
20260905014643 59 114 0.9 4.3 0.00 0.00 0.00 98 982.3
20260905013641 59 137 0.9 3.5 0.00 0.00 0.00 98 982.5
20260905012640 59 116 0.9 3.5 0.00 0.00 0.00 98 982.1
20260905011639 59 78 0.9 5.2 0.00 0.01 0.00 98 982.4
20260905010639 59 204 0.9 5.2 0.00 0.02 0.00 97 982.2
20260905005638 59 98 0.9 5.2 0.00 0.01 0.00 98 982.5
20260905004636 60 306 0.9 5.2 0.00 0.00 0.00 97 981.9
20260905003635 60 24 0.9 4.3 0.00 0.00 0.00 96 981.9
20260905002635 60 126 0.9 8.7 0.00 0.01 0.00 95 981.6
20260905001633 61 132 0.9 5.2 0.00 0.01 0.00 97 981.8
20260905000632 61 234 0.9 3.5 0.00 0.00 0.00 97 981.8
20260904235631 61 338 0.9 3.5 0.00 0.02 0.00 97 981.4
20260904234630 62 237 0.9 3.5 0.00 0.03 0.00 95 981.2
20260904233629 63 293 1.7 5.2 0.00 0.03 0.00 95 981.1
20260904232628 63 166 1.7 4.3 0.00 0.02 0.00 95 981.1
20260904231627 64 288 0.9 5.2 0.00 0.00 0.00 93 981.2
20260904230626 64 76 0.9 3.5 0.00 0.00 0.00 93 980.9
20260904225624 65 300 0.9 2.6 0.00 0.00 0.00 91 980.3
20260904224624 65 251 0.9 5.2 0.00 0.00 0.00 89 980.5
20260904223622 65 318 0.0 1.7 0.00 0.00 0.00 89 980.4
20260904222621 66 72 0.9 3.5 0.00 0.00 0.00 88 980.3
20260904221620 67 160 0.9 4.3 0.00 0.00 0.00 86 980.4
20260904220619 67 204 1.7 5.2 0.00 0.00 0.00 84 980.7
20260904215618 68 268 0.9 5.2 0.00 0.00 0.00 82 980.8
20260904214617 70 158 0.9 6.1 0.00 0.00 0.00 77 980.3
20260904213616 71 353 2.6 6.1 0.00 0.00 0.00 75 980.2
20260904212615 72 113 2.6 5.2 0.00 0.00 0.00 71 980.2
20260904211614 75 78 2.6 6.1 0.00 0.00 0.00 64 979.9